Location: ?????????
(38.5999°N, 22.7695°E)
Time: 11:32:01
(UTC+00:00)

ATLAS CENTAUR R/B - Pass Details

Date: 23 May 2024
Orbit: 442 x 588 km, 64.6° (Epoch: 18 June)

Event Time Altitude Azimuth Distance (km) Brightness Sun altitude
Exits shadow 01:40:41 16° 171° (S) 1,235 2.8 -15.2°
Maximum altitude 01:42:53 31° 115° (ESE) 796 2.3 -14.9°
Drops below altitude 10° 01:46:00 10° 51° (NE) 1,578 5.1 -14.4°
Sets 01:48:16 0° 41° (NE) 2,469 6.6 -14.1°
